{"data":{"norad_id":65474,"epoch":"2026-09-20T00:51:59.114304Z","epoch_age_seconds":151982,"freshness":"FRESH","line1":"1 65474U 25195S   26263.03610086  .00011906  00000+0  39464-3 0  9996","line2":"2 65474  53.1590  75.1300 0000931  82.0404 278.0703 15.31714211 59735","mean_motion":15.31714211,"eccentricity":9.31e-5,"inclination_deg":53.159,"raan_deg":75.13,"arg_perigee_deg":82.0404,"mean_anomaly_deg":278.0703,"bstar":0.00039464,"rev_number":5973,"period_min":94.012315721735,"perigee_km":470.06000679729,"apogee_km":471.33525980601,"semimajor_km":6848.8346333017,"source":"CELESTRAK","updated_at":"2026-09-21T09:00:35.617210Z"}}